FW7345 Weather Reports


time (UTC)temp
C
wind
direction
speed
KPH
gust
KPH
rain 1hr
cm
rain 24hr
cm
rain mn
cm
humidity
%
barometer
mb
20260506214606 32 225 0.0 3.2 0.00 0.00 0.00 77 1008.2
20260506213050 31 0 1.6 8.0 0.00 0.00 0.00 79 1008.2
20260506211550 31 0 0.0 8.0 0.00 0.00 0.00 79 1008.4
20260506210053 31 133 1.6 4.8 0.00 0.00 0.00 79 1008.6
20260506204610 30 0 1.6 9.7 0.00 0.00 0.00 80 1008.9
20260506203052 30 109 1.6 11.3 0.00 0.00 0.00 80 1008.9
20260506201552 30 199 1.6 6.4 0.00 0.00 0.00 82 1009.1
20260506200054 30 200 1.6 8.0 0.00 0.00 0.00 83 1009.1
20260506194603 29 186 3.2 14.5 0.00 0.00 0.00 84 1009.2
20260506193054 30 0 0.0 6.4 0.00 0.00 0.00 82 1009.3
20260506191555 30 186 1.6 8.0 0.00 0.00 0.00 82 1009.5
20260506190051 30 142 1.6 11.3 0.00 0.00 0.00 84 1009.6
20260506184556 29 133 3.2 11.3 0.00 0.00 0.00 85 1009.8
20260506183056 29 191 3.2 11.3 0.00 0.00 0.00 84 1009.9
20260506181552 29 169 1.6 11.3 0.00 0.00 0.00 84 1010.3
20260506180054 30 131 3.2 8.0 0.00 0.00 0.00 83 1010.5
20260506174553 28 124 0.0 4.8 0.00 0.00 0.00 86 1010.8
20260506173053 28 194 1.6 8.0 0.00 0.00 0.00 87 1011.0
20260506171556 27 171 0.0 6.4 0.00 0.00 0.00 91 1011.2
20260506170055 27 122 0.0 6.4 0.00 0.00 0.00 91 1011.3
20260506164550 26 0 0.0 6.4 0.00 0.00 0.00 93 1011.2
20260506163105 26 152 3.2 6.4 0.00 0.00 0.00 93 1011.2
20260506161604 26 205 1.6 9.7 0.00 0.00 0.00 94 1010.9
20260506160055 26 113 1.6 8.0 0.00 0.00 0.00 92 1010.8
20260506154608 26 103 1.6 9.7 0.00 0.00 0.00 93 1010.8
20260506153049 26 241 3.2 8.0 0.00 0.00 0.00 93 1010.9
20260506151548 26 180 1.6 6.4 0.00 0.00 0.00 93 1010.4
20260506150052 26 160 0.0 6.4 0.00 0.00 0.00 94 1010.2
20260506144601 25 149 1.6 4.8 0.00 0.00 0.00 95 1010.1
20260506143050 25 162 1.6 8.0 0.00 0.00 0.00 96 1009.7
20260506141559 25 146 3.2 9.7 0.00 0.00 0.00 98 1009.5
20260506140104 -17 0.0 0.0 0.00 0.00 0.00 1009.7
20260506134552 -17 0.0 0.0 0.00 0.00 0.00 1009.8
20260506133102 -17 0.0 0.0 0.00 0.00 0.00 1009.9
20260506131551 -17 0.0 0.0 0.00 0.00 0.00 1010.0
20260506130053 -17 0.0 0.0 0.00 0.00 0.00 1010.0
20260506124557 -17 0.0 0.0 0.00 0.00 0.00 1010.0
20260506123056 -17 0.0 0.0 0.00 0.00 0.00 1009.8
20260506121553 -17 0.0 0.0 0.00 0.00 0.00 1009.6
20260506120053 -17 0.0 0.0 0.00 0.00 0.00 1009.5
20260506114601 -17 0.0 0.0 0.00 0.00 0.00 1009.3
20260506113059 -17 0.0 0.0 0.00 0.00 0.00 1009.2
20260506111600 23 0 0.0 6.4 0.00 0.00 0.00 100 1009.1
20260506110056 23 0 0.0 8.0 0.00 0.00 0.00 100 1008.8
20260506104557 23 144 0.0 6.4 0.00 0.00 0.00 99 1008.8
20260506103102 23 156 1.6 8.0 0.00 0.00 0.00 99 1008.8
20260506101558 23 184 1.6 6.4 0.00 0.00 0.00 99 1008.8
20260506100101 23 143 1.6 6.4 0.00 0.00 0.00 99 1008.6
20260506094555 23 0 0.0 4.8 0.00 0.00 0.00 99 1008.5
20260506093046 23 0 0.0 8.0 0.00 0.00 0.00 99 1008.4
20260506091554 23 108 0.0 9.7 0.00 0.00 0.00 99 1008.7
20260506090051 23 155 0.0 3.2 0.00 0.00 0.00 99 1008.8
20260506084554 23 0 0.0 1.6 0.00 0.00 0.00 99 1008.9
20260506083052 23 0 0.0 3.2 0.00 0.00 0.00 99 1008.7
20260506081557 23 131 0.0 4.8 0.00 0.00 0.00 99 1009.0
20260506073053 23 184 0.0 9.7 0.00 0.00 0.00 99 1009.3
20260506071555 23 187 0.0 8.0 0.00 0.00 0.00 99 1009.5
20260506061556 23 171 0.0 4.8 0.00 0.00 0.00 98 1009.9
20260506044638 24 150 0.0 3.2 0.00 0.00 0.00 96 1009.8
20260506043058 24 178 0.0 4.8 0.00 0.00 0.00 96 1009.7
20260506041553 24 0 1.6 6.4 0.00 0.00 0.00 95 1009.4
20260506040055 25 181 0.0 6.4 0.00 0.00 0.00 94 1009.6
20260506034551 25 198 1.6 11.3 0.00 0.00 0.00 94 1009.3
20260506033050 25 0 0.0 8.0 0.00 0.00 0.00 94 1009.1
20260506031548 25 0 1.6 6.4 0.00 0.00 0.00 94 1008.9
20260506030058 25 154 0.0 9.7 0.00 0.00 0.00 93 1008.9
20260506024558 25 194 1.6 6.4 0.00 0.00 0.00 93 1008.7
20260506023058 25 150 0.0 11.3 0.00 0.00 0.00 92 1008.7
20260506021605 25 0 1.6 6.4 0.00 0.00 0.00 92 1008.3
20260506020051 25 176 0.0 8.0 0.00 0.00 0.00 91 1008.1
20260506014552 25 197 0.0 6.4 0.00 0.00 0.00 91 1008.0
20260506013059 25 172 0.0 8.0 0.00 0.00 0.00 90 1007.6
20260506011552 25 200 1.6 9.7 0.00 0.00 0.00 89 1007.3
20260506010115 26 170 1.6 9.7 0.00 0.00 0.00 89 1007.3
20260506004553 26 195 1.6 9.7 0.00 0.00 0.00 88 1007.1
20260506003055 26 151 0.0 9.7 0.00 0.00 0.00 87 1006.9
20260506001558 26 164 1.6 9.7 0.00 0.00 0.00 86 1007.0
20260506000057 26 0 1.6 11.3 0.00 0.00 0.00 86 1007.0
20260505234608 26 238 3.2 17.7 0.00 0.00 0.00 85 1006.9
20260505233057 27 164 3.2 11.3 0.00 0.00 0.00 86 1006.8
20260505231553 27 150 4.8 12.9 0.00 0.00 0.00 85 1006.9
20260505230053 27 134 3.2 17.7 0.00 0.00 0.00 84 1006.9
20260505224551 27 124 4.8 16.1 0.00 0.00 0.00 84 1006.8
20260505223053 28 196 1.6 17.7 0.00 0.00 0.00 81 1007.0
20260505221550 28 246 3.2 16.1 0.00 0.00 0.00 81 1007.0
20260505220056 27 183 3.2 12.9 0.00 0.00 0.00 81 1007.2